Regional Weather Roundup
Issued by NWS

Home | Current Version | Previous Version | Text Only | Print | Product List | Glossary On
Versions: 1 2 3 4 5 6 7 8 9 10 11 12 13 14 15 16 17 18 19 20 21 22 23 24 25 26 27 28 29 30 31 32 33 34 35 36 37 38 39 40 41 42 43 44 45 46 47 48 49 50
000
ASUS43 KMKX 231811
RWRWI

WISCONSIN REGIONAL WEATHER ROUNDUP
NATIONAL WEATHER SERVICE MILWAUKEE/SULLIVAN WI
1200 PM CST SUN NOV 23 2014

NOTE: "FAIR" INDICATES FEW OR NO CLOUDS BELOW 12,000 FEET WITH NO
SIGNIFICANT WEATHER AND/OR OBSTRUCTIONS TO VISIBILITY.

WIZ001-002-006>008-014>016-023>028-231900-
NORTHWEST WISCONSIN

CITY           SKY/WX    TMP DP  RH WIND       PRES   REMARKS
SUPERIOR ARPT  CLOUDY    40  40 100 CALM      29.42F FOG
6HR MIN TEMP:  36; 6HR MAX TEMP:  40;

ASHLAND        CLOUDY    48  45  89 S5        29.43F
6HR MIN TEMP:  36; 6HR MAX TEMP:  48;

HAYWARD        FOG       44  44 100 S8        29.42F VSB<1/4
6HR MIN TEMP:  41; 6HR MAX TEMP:  46; 6HR PCP: TRACE;

SIREN          LGT RAIN  44  44  99 NW5       29.43S VSB<1/4
6HR MIN TEMP:  42; 6HR MAX TEMP:  46;

CUMBERLAND     FOG       41  41 100 SE5       29.42F VSB<1/4
RICE LAKE      LGT RAIN  43  42  97 SE9       29.44F VSB<1/4
6HR MIN TEMP:  39; 6HR MAX TEMP:  45;

CHETEK         FOG       44  44 100 E8        29.43F VSB<1/4
6HR MIN TEMP:  42; 6HR MAX TEMP:  45;

LADYSMITH      FOG       46  45  97 SE6       29.46F VSB<1/4
6HR MIN TEMP:  44; 6HR MAX TEMP:  46;

EAU CLAIRE     CLOUDY    49  48  97 S7        29.44F FOG
6HR MIN TEMP:  46; 6HR MAX TEMP:  49;

MENOMONIE      CLOUDY    50  49  96 S8        29.44F FOG
6HR MIN TEMP:  47; 6HR MAX TEMP:  50;

NEW RICHMOND   FOG       45  45 100 S5        29.42F VSB<1/4
6HR MIN TEMP:  43; 6HR MAX TEMP:  46;

OSCEOLA        FOG       44  44 100 CALM      29.44F VSB<1/4
6HR MIN TEMP:  42; 6HR MAX TEMP:  46;

$$

WIZ003>005-009-010-017-018-231900-
NORTH CENTRAL WISCONSIN

CITY           SKY/WX    TMP DP  RH WIND       PRES   REMARKS
MANITOWISH WTR FOG       42  42 100 S7        29.45F VSB<1/4
6HR MIN TEMP:  40; 6HR MAX TEMP:  43;

ARBOR VITAE    FOG       44  43  96 S7        29.47F VSB<1/4
6HR MIN TEMP:  43; 6HR MAX TEMP:  44;

WOODRUFF       FOG       44  43  96 S7        29.47F VSB<1/4
6HR MIN TEMP:  43; 6HR MAX TEMP:  44;

RHINELANDER    FOG       43  43 100 S7        29.49F VSB 1/4
6HR MIN TEMP:  42; 6HR MAX TEMP:  44;

EAGLE RIVER    FOG       44  44 100 S6        29.48F VSB 1/2
6HR MIN TEMP:  42; 6HR MAX TEMP:  44;

LAND O LAKES   FOG       45  45 100 S6        29.47F VSB 1/4
6HR MIN TEMP:  42; 6HR MAX TEMP:  45;

PHILLIPS       FOG       43  43 100 S7        29.45F VSB<1/4
6HR MIN TEMP:  42; 6HR MAX TEMP:  43;

TOMAHAWK       FOG       43  43  97 CALM      29.48F VSB<1/4
6HR MIN TEMP:  41; 6HR MAX TEMP:  44;

MEDFORD        FOG       43  43 100 S7        29.47F VSB<1/4
6HR MIN TEMP:  38; 6HR MAX TEMP:  43;

MERRILL        FOG       45  45 100 S7        29.49F VSB 1/4
6HR MIN TEMP:  44; 6HR MAX TEMP:  46;

$$

WIZ029-030-035-036-043>047-231900-
CENTRAL WISCONSIN

CITY           SKY/WX    TMP DP  RH WIND       PRES   REMARKS
WAUSAU         FOG       46  45  96 S12       29.49F VSB<1/4
6HR MIN TEMP:  43; 6HR MAX TEMP:  46; 6HR PCP:  0.02;

MOSINEE        FOG       45  45 100 SE10      29.50F VSB 1/8
MARSHFIELD     FOG       47  46  97 S7        29.49F VSB<1/4
6HR MIN TEMP:  45; 6HR MAX TEMP:  47; 6HR PCP: TRACE;

STEVENS POINT  DRIZZLE   46  46 100 S9        29.52F
6HR MIN TEMP:  45; 6HR MAX TEMP:  46;

WAUPACA        CLOUDY    51  50  97 S10       29.53F FOG
6HR MIN TEMP:  49; 6HR MAX TEMP:  51;

WAUTOMA        CLOUDY    50  49  96 S7        29.54F FOG
6HR MIN TEMP:  48; 6HR MAX TEMP:  50;

WISC RAPIDS    CLOUDY    50  47  89 S7        29.52F FOG
6HR MIN TEMP:  48; 6HR MAX TEMP:  50;

CAMP DOUGLAS   CLOUDY    50  50 100 SE6       29.50F FOG
$$

WIZ011>013-019>022-031-037>040-048>050-231900-
NORTHEAST WISCONSIN

CITY           SKY/WX    TMP DP  RH WIND       PRES   REMARKS
ANTIGO         FOG       41  41 100 S8        29.51F VSB<1/4
6HR MIN TEMP:  38; 6HR MAX TEMP:  41;

SHAWANO        CLOUDY    49  48  96 S5        29.54F FOG
6HR MIN TEMP:  48; 6HR MAX TEMP:  49;

OCONTO         CLOUDY    45  45 100 S6        29.55F
6HR MIN TEMP:  42; 6HR MAX TEMP:  45;

STURGEON BAY   CLOUDY    45  43  93 S12       29.57F
6HR MIN TEMP:  45; 6HR MAX TEMP:  46;

GREEN BAY      CLOUDY    49  47  93 S12       29.55F FOG
6HR MIN TEMP:  46; 6HR MAX TEMP:  49;

MANITOWOC      CLOUDY    47  44  90 S12       29.60F
6HR MIN TEMP:  44; 6HR MAX TEMP:  47;

APPLETON       LGT RAIN  46  46 100 S14       29.56F VSB 1/2
CLINTONVILLE   CLOUDY    46  46 100 S8        29.54F FOG
OSHKOSH        LGT RAIN  48  45  89 S9        29.57F FOG
6HR MIN TEMP:  47; 6HR MAX TEMP:  49; 6HR PCP: TRACE;

$$

WIZ032>034-041-042-053>061-231900-
SOUTHWEST WISCONSIN

CITY           SKY/WX    TMP DP  RH WIND       PRES   REMARKS
LA CROSSE      CLOUDY    51  49  92 S7        29.47F FOG
6HR MIN TEMP:  50; 6HR MAX TEMP:  51; 6HR PCP:  0.02;

SPARTA         CLOUDY    50  49  95 S7        29.49F FOG
6HR MIN TEMP:  49; 6HR MAX TEMP:  50;

VIROQUA        CLOUDY    48  48 100 S8        29.48F
6HR MIN TEMP:  48; 6HR MAX TEMP:  49; 6HR PCP:  0.05;

BOSCOBEL       RAIN      52  49  89 S5        29.50F FOG
6HR MIN TEMP:  51; 6HR MAX TEMP:  53; 6HR PCP:  0.05;

PRAIRIE DU CHI LGT RAIN  51  48  90 CALM      29.48F
6HR MIN TEMP:  50; 6HR MAX TEMP:  51; 6HR PCP:  0.03;

PLATTEVILLE    CLOUDY    49  48  97 S9        29.52F
6HR MIN TEMP:  48; 6HR MAX TEMP:  49; 6HR PCP:  0.24;

$$

WIZ056-057-062-063-064-067-068-231900-
SOUTH CENTRAL WISCONSIN

CITY           SKY/WX    TMP DP  RH WIND       PRES   REMARKS
REEDSBURG      DRIZZLE   49  48  95 CALM      29.50F
6HR MIN TEMP:  48; 6HR MAX TEMP:  50;

BARABOO/DELLS  DRIZZLE   49  47  92 CALM      29.50F
6HR MIN TEMP:  47; 6HR MAX TEMP:  49;

LONE ROCK      LGT RAIN  54  48  80 S6        29.50F
6HR MIN TEMP:  53; 6HR MAX TEMP:  55; 6HR PCP:  0.06;

MINERAL POINT  RAIN      50  46  87 SE10      29.52F
MADISON        LGT RAIN  48  46  93 S13       29.55F FOG
6HR MIN TEMP:  48; 6HR MAX TEMP:  50; 6HR PCP:  0.16;

MIDDLETON      CLOUDY    50  49  97 S13G20    29.54F
6HR MIN TEMP:  50; 6HR MAX TEMP:  50; 6HR PCP:  0.10;

WATERTOWN      LGT RAIN  47  47 100 S9        29.57F
6HR MIN TEMP:  46; 6HR MAX TEMP:  48; 6HR PCP:  0.05;

MONROE         RAIN      45  45 100 SE8       29.54F
JANESVILLE     LGT RAIN  48  46  93 S8        29.57F FOG
$$

WIZ051-052-058>065-066-070>072-231900-
SOUTHEAST WISCONSIN

CITY           SKY/WX    TMP DP  RH WIND       PRES   REMARKS
MILWAUKEE      LGT RAIN  49  46  90 S9        29.62F
6HR MIN TEMP:  49; 6HR MAX TEMP:  50; 6HR PCP:  0.11;

WAUKESHA       NOT AVBL
MILWAUKEE/TIMM RAIN      48  45  87 S8        29.62F
RACINE         CLOUDY    47  44  90 S8        29.63F
6HR MIN TEMP:  46; 6HR MAX TEMP:  50; 6HR PCP:  0.06;

BURLINGTON     LGT RAIN  47  46  95 S6        29.60F
6HR MIN TEMP:  46; 6HR MAX TEMP:  47; 6HR PCP:  0.01;

KENOSHA        CLOUDY    50  47  89 S9        29.61F
6HR MIN TEMP:  49; 6HR MAX TEMP:  50; 6HR PCP:  0.04;

FOND DU LAC    LGT RAIN  49  46  90 S12       29.55F
6HR MIN TEMP:  48; 6HR MAX TEMP:  50; 6HR PCP:  0.01;

SHEBOYGAN      RAIN      48  45  89 S7        29.59F FOG
6HR MIN TEMP:  45; 6HR MAX TEMP:  48; 6HR PCP:  0.05;

WEST BEND      RAIN      46  45  93 S7        29.58F
JUNEAU         LGT RAIN  47  46  97 S13       29.58F
6HR MIN TEMP:  46; 6HR MAX TEMP:  48; 6HR PCP:  0.07;

$$

LSZ147-162-231900-
LAKE SUPERIOR

STATION/POSITION TIME  TEMP    WIND        PRES    WAVE
                       AIR SEA DIR/SP/G            HT/PER
                 (UTC) (F)     (DEG/KT/KT) (MB)    (FT/S)
DEVILS ISLAND    1800   42     240/  4/  5  996.9F
PORT WING        1700   38     200/  1/  2  997.6
SAXON HARBOR     1700   51     190/  4/  9  997.3S
$$

LMZ867-665-643>646-231900-
LAKE MICHIGAN

STATION/POSITION TIME  TEMP    WIND        PRES    WAVE
                       AIR SEA DIR/SP/G            HT/PER


USA.gov is the U.S. government's official web portal to all federal, state and local government web resources and services.